Regional Weather Roundup
Issued by NWS Cleveland, OH

Home | Current Version | Previous Version | Graphics & Text | Print | Product List | Glossary On
Versions: 1 2 3 4 5 6 7 8 9 10 11 12 13 14 15 16 17 18 19 20 21 22 23 24 25 26 27 28 29 30 31 32 33 34 35 36 37 38 39 40 41 42 43 44 45 46 47 48 49 50
000
ASUS41 KCLE 282110
RWRCLE
OHIO REGIONAL WEATHER ROUNDUP
NATIONAL WEATHER SERVICE WILMINGTON, OH
500 PM EDT THU MAY 28 2015

NOTE: "FAIR" INDICATES FEW OR NO CLOUDS BELOW 12,000 FEET WITH NO
SIGNIFICANT WEATHER AND/OR OBSTRUCTIONS TO VISIBILITY.

OHZ001>008-015>018-024>027-034-035-043-044-282200-
   NORTHWEST OHIO

CITY           SKY/WX    TMP DP  RH WIND       PRES   REMARKS
DEFIANCE       SUNNY     80  56  43 E13       30.20S
FINDLAY          N/A     83  58  42 SE9       30.18F
TOLEDO EXPRESS MOSUNNY   79  53  40 E9        30.20F
TOLEDO EXEC    SUNNY     76  52  43 E8        30.22F
LIMA           MOSUNNY   82  57  42 SE6       30.18F
$$

OHZ009>014-019>023-028>033-038-089-282200-
   NORTHEAST OHIO

CITY           SKY/WX    TMP DP  RH WIND       PRES   REMARKS
CLE-HOPKINS    SUNNY     76  57  51 N12       30.24F
CLE-LAKEFRONT  SUNNY     67  58  72 NE8       30.22F
CUY CO. ARPT   SUNNY     79  57  47 E9        30.23F
LORAIN-ELYRIA  SUNNY     78  58  49 NE10      30.22F
ASHTABULA      SUNNY     76  57  51 N6        30.25F
AKRON-CANTON   MOSUNNY   79  55  43 E9        30.23F
WOOSTER        MOSUNNY   77  57  50 S6        30.23F
MANSFIELD      MOSUNNY   78  58  49 E8        30.22F
YOUNGSTOWN     MOSUNNY   78  53  41 E7        30.24F
$$

OHZ042-051>053-060>062-070>072-077>081-282200-
  SOUTHWEST OHIO

CITY           SKY/WX    TMP DP  RH WIND       PRES   REMARKS
CINC-COVINGTON MOSUNNY   80  63  55 SE7       30.17F
CINC-LUNKEN    MOSUNNY   82  65  56 VRB5      30.16F
HAMILTON       CLOUDY    81  64  56 E5        30.17F
DAYTON         MOSUNNY   83  60  45 S5        30.18F
WRIGHT-PAT AFB SUNNY     83  62  48 S10       30.16F
DAYTON GENERAL SUNNY     82  62  50 S12       30.16F
WILMINGTON     SUNNY     80  60  50 SE8       30.17F
$$

OHZ036-037-039>041-045>050-054>059-063>069-073>076-082>088-282200-
  CENTRAL AND SOUTHEAST OHIO

CITY           SKY/WX    TMP DP  RH WIND       PRES   REMARKS
COLUMBUS       MOSUNNY   82  60  47 SE7       30.17F
OSU AIRPORT    MOSUNNY   82  61  48 E9        30.18F
BOLTON FIELD   MOSUNNY   82  63  51 E7        30.19F
RICKENBACK AFB MOSUNNY   79  62  55 E5        30.18S
NEWARK         MOSUNNY   82  61  48 E12       30.19F
MARION         SUNNY     81  56  42 SE8       30.20F
LANCASTER      PTSUNNY   82  63  52 E6        30.19F
ZANESVILLE     MOSUNNY   81  59  47 VRB5      30.20F
NEW PHILLY     PTSUNNY   83  60  45 NE7       30.22F
$$


USA.gov is the U.S. government's official web portal to all federal, state and local government web resources and services.